Gaylord, MI

3:56 PM EDT on October 17, 2017 (GMT -0400)
Otsego County

Weather History for KGLR - February, 2014

Change the Weather History Date:

Friday, February 21, 2014

  Actual Average Record
Temperature  
Mean Temperature 28 °F -  
Max Temperature 35 °F 32 °F 55 °F (2017)
Min Temperature 19 °F 14 °F -11 °F (1977)
Degree Days  
Heating Degree Days 37    
Moisture  
Dew Point 23 °F    
Average Humidity 86    
Maximum Humidity 100    
Minimum Humidity 74    
Precipitation  
Precipitation 0.02 in - - ()
Sea Level Pressure  
Sea Level Pressure 29.23 in    
Wind  
Wind Speed 22 mph (SW)    
Max Wind Speed 33 mph    
Max Gust Speed 45 mph    
Visibility 2 miles    
Events Fog , Rain , Snow    
Averages and records for this station are not official NWS values.
T = Trace of Precipitation, MM = Missing Value Source: NWS Daily Summary

Daily Weather History Graph

Daily Weather History Graph

Search for Another Location

Airport or City:

Trip Planner

Search our weather history database for the weather conditions in past years. The results will help you decide how hot, cold, wet, or windy it might be!

Date:

Astronomy

Feb. 21, 2014 Rise Set
Actual Time 7:30 AM EST 6:15 PM EST
Civil Twilight 7:00 AM EST 6:45 PM EST
Nautical Twilight 6:26 AM EST 7:19 PM EST
Astronomical Twilight 5:52 AM EST 7:53 PM EST
Moon 12:24 AM EST (2/21) 10:36 AM EST (2/21)
Length of Visible Light 11h 44m
Length of Day
10h 45m
Waning Gibbous, 61% of the Moon is Illuminated
Feb 21
Waning Gibbous
Feb 22
Last Quarter
Mar 1
New
Mar 8
First Quarter
Mar 16
Full

Hourly Weather History & Observations

Time (EST) Temp. Windchill Dew Point Humidity Pressure Visibility Wind Dir Wind Speed Gust Speed Precip Events Conditions
12:17 AM 33.1 °F 21.9 °F 32.0 °F 96% 29.23 in 4.0 mi SE 18.4 mph 28.8 mph 0.00 in Snow Light Snow
12:41 AM 33.1 °F 21.5 °F 32.0 °F 96% 29.21 in 2.0 mi SE 19.6 mph 29.9 mph 0.00 in Snow Light Snow
12:48 AM 33.8 °F 22.5 °F 32.0 °F 93% 29.20 in 1.2 mi SE 19.6 mph 26.5 mph 0.00 in Snow Light Snow
12:53 AM 33.1 °F 20.9 °F 32.0 °F 96% 29.24 in 0.8 mi SE 21.9 mph 31.1 mph 0.00 in Snow Light Snow
1:53 AM 33.1 °F 21.2 °F 33.1 °F 100% 29.18 in 0.8 mi SSE 20.7 mph 31.1 mph 0.00 in   Overcast
2:03 AM 34.0 °F 23.4 °F 34.0 °F 100% 29.13 in 1.2 mi SSE 17.3 mph 29.9 mph 0.00 in   Overcast
2:16 AM 34.0 °F 22.7 °F 34.0 °F 100% 29.12 in 2.5 mi SSE 19.6 mph 28.8 mph 0.00 in Rain Light Rain
2:30 AM 35.1 °F 24.8 °F 35.1 °F 100% 29.13 in 3.0 mi South 17.3 mph 24.2 mph 0.00 in Rain Light Rain
2:53 AM 35.1 °F 23.8 °F 35.1 °F 100% 29.18 in 4.0 mi South 20.7 mph 32.2 mph 0.00 in   Overcast
3:19 AM 34.0 °F 21.3 °F 32.0 °F 92% 29.15 in 9.0 mi SSW 25.3 mph 39.1 mph 0.00 in Snow Light Snow
3:32 AM 34.0 °F 22.7 °F 30.0 °F 85% 29.15 in 9.0 mi SSW 19.6 mph 36.8 mph 0.00 in Snow Light Snow
3:46 AM 33.1 °F 21.9 °F 28.9 °F 85% 29.14 in 9.0 mi SSW 18.4 mph 29.9 mph 0.00 in Snow Light Snow
3:53 AM 33.1 °F 21.2 °F 28.9 °F 85% 29.18 in 9.0 mi SSW 20.7 mph 27.6 mph 0.00 in   Overcast
4:06 AM 33.1 °F 20.1 °F 28.9 °F 85% 29.14 in 10.0 mi SSW 25.3 mph 36.8 mph N/A   Overcast
4:22 AM 33.1 °F 21.2 °F 28.9 °F 85% 29.14 in 10.0 mi SSW 20.7 mph 31.1 mph N/A   Overcast
4:53 AM 33.1 °F 20.9 °F 28.0 °F 82% 29.18 in 10.0 mi SSW 21.9 mph 42.6 mph N/A   Overcast
5:00 AM 33.1 °F 19.8 °F 28.0 °F 82% 29.14 in 10.0 mi SSW 26.5 mph 39.1 mph N/A   Overcast
5:53 AM 33.1 °F 21.2 °F 27.0 °F 78% 29.18 in 10.0 mi SSW 20.7 mph 35.7 mph N/A   Overcast
6:53 AM 33.1 °F 19.8 °F 27.0 °F 78% 29.17 in 10.0 mi SSW 26.5 mph 39.1 mph N/A   Overcast
7:53 AM 32.0 °F 20.1 °F 26.1 °F 79% 29.18 in 10.0 mi SSW 19.6 mph 31.1 mph N/A   Overcast
8:44 AM 30.9 °F 18.7 °F 27.0 °F 85% 29.13 in 1.8 mi SSW 19.6 mph 26.5 mph 0.01 in Snow Light Snow
8:53 AM 30.9 °F 19.8 °F 27.0 °F 85% 29.17 in 1.0 mi SSW 16.1 mph 26.5 mph 0.01 in Snow Light Snow
9:09 AM 30.9 °F 19.4 °F 27.0 °F 85% 29.13 in 2.5 mi SSW 17.3 mph 21.9 mph 0.01 in Snow Light Snow
9:27 AM 30.0 °F 14.9 °F 26.1 °F 85% 29.13 in 0.8 mi SSW 29.9 mph 36.8 mph 0.01 in Snow Light Snow
9:49 AM 28.4 °F 13.0 °F 24.8 °F 86% 29.14 in 0.2 mi SSW 28.8 mph 43.7 mph 0.01 in Snow Heavy Snow
9:50 AM 28.9 °F 13.7 °F 23.0 °F 78% 29.18 in 0.2 mi SW 28.8 mph 43.7 mph 0.01 in Snow Heavy Snow
9:55 AM 28.9 °F 14.5 °F 23.0 °F 78% 29.14 in 0.5 mi SW 25.3 mph 43.7 mph 0.00 in Snow Snow
10:15 AM 28.0 °F 12.5 °F 21.9 °F 78% 29.16 in 0.5 mi SW 28.8 mph 42.6 mph 0.00 in Snow Snow
10:34 AM 28.0 °F 13.6 °F 21.9 °F 78% 29.15 in 0.8 mi SW 24.2 mph 35.7 mph 0.00 in Snow Light Snow
10:53 AM 27.0 °F 11.3 °F 21.9 °F 81% 29.20 in 0.2 mi SW 27.6 mph 39.1 mph 0.00 in Snow Heavy Snow
11:13 AM 27.0 °F 11.6 °F 21.0 °F 78% 29.17 in 0.5 mi SW 26.5 mph 40.3 mph 0.00 in Snow Snow
11:27 AM 27.0 °F 14.3 °F 19.9 °F 75% 29.17 in 1.0 mi SW 17.3 mph 31.1 mph 0.00 in Snow Light Snow
11:40 AM 26.1 °F 12.0 °F 19.9 °F 78% 29.17 in 0.5 mi SW 20.7 mph 35.7 mph 0.00 in Snow Snow
11:53 AM 25.0 °F 10.2 °F 19.9 °F 81% 29.22 in 0.5 mi SW 21.9 mph 38.0 mph 0.00 in Snow Snow
12:40 PM 24.1 °F 6.1 °F 18.0 °F 77% 29.18 in 0.2 mi SW 33.4 mph 44.9 mph 0.00 in Snow Heavy Snow
12:48 PM 24.8 °F 9.3 °F 17.6 °F 74% 29.18 in 0.5 mi SW 24.2 mph 40.3 mph 0.00 in Snow Snow
12:53 PM 25.0 °F 7.6 °F 18.0 °F 75% 29.23 in 0.8 mi SW 32.2 mph 43.7 mph 0.00 in Snow Light Snow
1:09 PM 25.0 °F 8.9 °F 18.0 °F 75% 29.18 in 1.2 mi SSW 26.5 mph 38.0 mph 0.00 in Snow Light Snow
1:20 PM 24.1 °F 8.0 °F 18.0 °F 77% 29.18 in 1.0 mi SW 25.3 mph 35.7 mph 0.00 in Snow Light Snow
1:29 PM 24.1 °F 8.0 °F 18.0 °F 77% 29.19 in 0.5 mi SW 25.3 mph 42.6 mph 0.00 in Snow Snow
1:37 PM 24.1 °F 6.6 °F 17.1 °F 75% 29.19 in 0.2 mi SW 31.1 mph 43.7 mph 0.00 in Snow Heavy Snow
1:53 PM 23.0 °F 5.1 °F 18.0 °F 81% 29.24 in 0.2 mi SW 31.1 mph 41.4 mph 0.00 in Snow Heavy Snow
2:53 PM 21.9 °F 4.5 °F 17.1 °F 82% 29.26 in 0.2 mi SW 27.6 mph 35.7 mph 0.00 in Snow Heavy Snow
3:45 PM 21.0 °F 5.0 °F 18.0 °F 88% 29.24 in 0.2 mi SW 21.9 mph 38.0 mph 0.00 in Fog , Snow Heavy Snow
3:53 PM 21.0 °F 4.6 °F 18.0 °F 88% 29.30 in 0.2 mi SW 23.0 mph 36.8 mph 0.00 in Fog , Snow Heavy Snow
4:20 PM 21.9 °F 7.3 °F 18.0 °F 85% 29.25 in 0.5 mi SW 18.4 mph 27.6 mph 0.00 in Fog , Snow Snow
4:34 PM 21.0 °F 3.6 °F 18.0 °F 88% 29.26 in 0.2 mi SW 26.5 mph 40.3 mph 0.00 in Fog , Snow Snow
4:50 PM 21.2 °F 4.5 °F 17.6 °F 86% 29.27 in 0.2 mi SW 24.2 mph 34.5 mph 0.00 in Fog , Snow Heavy Snow
4:53 PM 21.0 °F 3.9 °F 18.0 °F 88% 29.32 in 0.2 mi SW 25.3 mph 34.5 mph 0.00 in Fog , Snow Heavy Snow
5:53 PM 21.0 °F 2.7 °F 18.0 °F 88% 29.35 in 0.2 mi WSW 29.9 mph 39.1 mph 0.00 in Fog , Snow Snow
6:30 PM 21.0 °F 4.6 °F 19.0 °F 92% 29.32 in 0.5 mi SW 23.0 mph - 0.00 in Fog , Snow Snow
6:48 PM 21.2 °F 5.6 °F 17.6 °F 86% 29.32 in 0.8 mi SW 20.7 mph 33.4 mph 0.00 in Snow Light Snow
6:53 PM 21.9 °F 5.5 °F 18.0 °F 85% 29.37 in 0.8 mi WSW 24.2 mph 33.4 mph 0.00 in Snow Light Snow
7:30 PM 21.9 °F 7.3 °F 19.9 °F 92% 29.34 in 0.5 mi SW 18.4 mph 27.6 mph 0.00 in Fog , Snow Snow
7:53 PM 21.9 °F 7.8 °F 19.9 °F 92% 29.40 in 0.5 mi SW 17.3 mph - 0.00 in Fog , Snow Snow
8:20 PM 21.9 °F 5.5 °F 19.9 °F 92% 29.36 in 0.5 mi WSW 24.2 mph 34.5 mph 0.00 in Fog , Snow Snow
8:23 PM 21.9 °F 4.8 °F 19.9 °F 92% 29.36 in 0.2 mi WSW 26.5 mph 34.5 mph 0.00 in Fog , Snow Heavy Snow
8:41 PM 21.9 °F 5.5 °F 19.0 °F 89% 29.37 in 0.5 mi WSW 24.2 mph 29.9 mph 0.00 in Fog , Snow Snow
8:53 PM 21.9 °F 4.2 °F 19.0 °F 89% 29.43 in 0.5 mi WSW 28.8 mph 38.0 mph 0.00 in Fog , Snow Snow
8:58 PM 21.9 °F 4.2 °F 19.0 °F 89% 29.38 in 0.2 mi WSW 28.8 mph 38.0 mph 0.00 in Fog , Snow Snow
9:09 PM 21.9 °F 5.8 °F 18.0 °F 85% 29.39 in 0.8 mi WSW 23.0 mph 36.8 mph 0.00 in Snow Light Snow
9:53 PM 21.9 °F 5.1 °F 18.0 °F 85% 29.46 in 0.8 mi WSW 25.3 mph 33.4 mph 0.00 in Snow Light Snow
10:53 PM 21.0 °F 4.3 °F 17.1 °F 85% 29.49 in 0.8 mi WSW 24.2 mph 34.5 mph 0.00 in Snow Light Snow
11:53 PM 19.9 °F 2.8 °F 17.1 °F 89% 29.51 in 0.8 mi WSW 24.2 mph 28.8 mph 0.00 in Snow Light Snow